• Currently

    Reported at Minneapolis, Minneapolis-St. Paul International Airport, MN
    9:53 AM CST SUN JUL 23 2017
  • 73°F23°C
  • Mostly Cloudy
    Mostly Cloudy
  • Feels Like:73°F23°CDew Point:59°F15°CHumidity:61% Winds:NNW 12 mph 19 kph
    Pressure:29.91 in1013 hPaVisibility:10.00 miles16090.00 meters
Time Weather Temp Dew Point
Humidity Winds Visibility Pressure Precipitation
1 hr 24 hr
Friday, July 21
23:53 23:53 Mostly Cloudy Mostly Cloudy 76°F24°C 68°F20°C 77% CalmCalm 10.0 miles16.1 km 29.94 in1014 hPa 0.00 in0.00 mm --
22:53 22:53 Mostly Cloudy Mostly Cloudy 78°F26°C 69°F21°C 74% E 7 mphE 11 kph 10.0 miles16.1 km 29.94 in1014 hPa 0.00 in0.00 mm --
21:53 21:53 Partly Cloudy Partly Cloudy 80°F27°C 67°F19°C 64% SE 6 mphSE 9 kph 10.0 miles16.1 km 29.97 in1015 hPa 0.00 in0.00 mm --
20:53 20:53 Mostly Clear Mostly Clear 85°F29°C 59°F15°C 42% SE 3 mphSE 6 kph 10.0 miles16.1 km 29.94 in1014 hPa 0.00 in0.00 mm --
19:53 19:53 Mostly Sunny Mostly Sunny 86°F30°C 63°F17°C 46% CalmCalm 10.0 miles16.1 km 29.97 in1015 hPa 0.00 in0.00 mm --
18:53 18:53 Mostly Sunny Mostly Sunny 88°F31°C 55°F13°C 33% SSW 5 mphSSW 7 kph 10.0 miles16.1 km 29.97 in1015 hPa 0.00 in0.00 mm --
17:53 17:53 Partly Cloudy Partly Cloudy 88°F31°C 59°F15°C 38% N 5 mphN 7 kph 8.0 miles12.9 km 30 in1016 hPa 0.00 in0.00 mm --
16:53 16:53 Partly Cloudy Partly Cloudy 88°F31°C 66°F19°C 48% WSW 6 mphWSW 9 kph 10.0 miles16.1 km 30 in1016 hPa 0.00 in0.00 mm --
15:53 15:53 Partly Cloudy Partly Cloudy 88°F31°C 63°F17°C 43% WSW 6 mphWSW 9 kph 10.0 miles16.1 km 30.03 in1017 hPa 0.00 in0.00 mm --
14:53 14:53 Partly Cloudy Partly Cloudy 85°F29°C 68°F20°C 57% N 7 mphN 11 kph 10.0 miles16.1 km 30.03 in1017 hPa 0.00 in0.00 mm --
13:53 13:53 Mostly Cloudy Mostly Cloudy 83°F28°C 69°F21°C 63% SSE 6 mphSSE 9 kph 10.0 miles16.1 km 30.03 in1017 hPa 0.00 in0.00 mm --
12:53 12:53 Mostly Cloudy Mostly Cloudy 81°F27°C 67°F19°C 62% SSW 5 mphSSW 7 kph 10.0 miles16.1 km 30.03 in1017 hPa 0.00 in0.00 mm --
11:53 11:53 Mostly Cloudy Mostly Cloudy 81°F27°C 69°F21°C 67% N 3 mphN 6 kph 10.0 miles16.1 km 30.03 in1017 hPa 0.00 in0.00 mm --
10:53 10:53 Mostly Cloudy Mostly Cloudy 79°F26°C 70°F21°C 74% CalmCalm 10.0 miles16.1 km 30.03 in1017 hPa 0.00 in0.00 mm --
09:53 09:53 Mostly Cloudy Mostly Cloudy 75°F24°C 69°F21°C 82% CalmCalm 10.0 miles16.1 km 30.03 in1017 hPa 0.00 in0.00 mm --
08:53 08:53 Mostly Cloudy Mostly Cloudy 74°F23°C 67°F19°C 79% N 3 mphN 6 kph 10.0 miles16.1 km 30 in1016 hPa 0.00 in0.00 mm --
07:53 07:53 Mostly Cloudy With Patchy Fog Mostly Cloudy With Patchy Fog 72°F22°C 68°F20°C 87% CalmCalm 4.0 miles6.4 km 30 in1016 hPa 0.00 in0.00 mm --
07:41 07:41 Mostly Cloudy With Patchy Fog Mostly Cloudy With Patchy Fog 71°F22°C 68°F20°C 90% CalmCalm 4.0 miles6.4 km 30 in1016 hPa 0.00 in0.00 mm --
07:25 07:25 Mostly Cloudy With Mist And Fog Mostly Cloudy With Mist And Fog 70°F21°C 67°F19°C 90% SSW 5 mphSSW 7 kph 5.0 miles8.0 km 30 in1016 hPa 0.00 in0.00 mm --
06:53 06:53 Cloudy With Patchy Fog Cloudy With Patchy Fog 70°F21°C 67°F19°C 90% S 3 mphS 6 kph 5.0 miles8.0 km 30 in1016 hPa 0.00 in0.00 mm --
06:41 06:41 Cloudy With Patchy Fog Cloudy With Patchy Fog 70°F21°C 67°F19°C 90% N 5 mphN 7 kph 5.0 miles8.0 km 29.97 in1015 hPa 0.00 in0.00 mm --
06:31 06:31 Mostly Cloudy With Patchy Fog Mostly Cloudy With Patchy Fog 70°F21°C 67°F19°C 90% SE 3 mphSE 6 kph 5.0 miles8.0 km 29.97 in1015 hPa 0.00 in0.00 mm --
05:53 05:53 Partly Cloudy With Patchy Fog Partly Cloudy With Patchy Fog 68°F20°C 66°F19°C 93% CalmCalm 6.0 miles9.7 km 29.97 in1015 hPa 0.00 in0.00 mm --
04:53 04:53 Mostly Clear With Mist And Fog Mostly Clear With Mist And Fog 69°F21°C 67°F19°C 93% N 3 mphN 6 kph 6.0 miles9.7 km 29.94 in1014 hPa 0.00 in0.00 mm --
03:53 03:53 Mostly Clear With Patchy Fog Mostly Clear With Patchy Fog 69°F21°C 66°F19°C 90% N 3 mphN 6 kph 6.0 miles9.7 km 29.94 in1014 hPa 0.00 in0.00 mm --
02:53 02:53 Mostly Cloudy With Mist And Fog Mostly Cloudy With Mist And Fog 70°F21°C 67°F19°C 90% N 7 mphN 11 kph 6.0 miles9.7 km 29.94 in1014 hPa 0.00 in0.00 mm --
01:53 01:53 Mostly Cloudy With Mist And Fog Mostly Cloudy With Mist And Fog 70°F21°C 68°F20°C 93% WSW 3 mphWSW 6 kph 5.0 miles8.0 km 29.91 in1013 hPa 0.00 in0.00 mm --
00:53 00:53 Cloudy Cloudy 70°F21°C 67°F19°C 90% E 5 mphE 7 kph 10.0 miles16.1 km 29.94 in1014 hPa 0.00 in0.03 mm --
00:12 00:12 Cloudy Cloudy 70°F21°C 67°F19°C 90% NE 6 mphNE 9 kph 9.0 miles14.5 km 29.97 in1015 hPa 0.00 in0.03 mm --